Location: Bjelajci
(45.0103°N, 16.1758°E)
Time: 19:46:50
(UTC+00:00)

Cosmos 2278 - Pass Details

Date: 14 July 2020
Orbit: 838 x 854 km, 71.1° (Epoch: 06 August)

Event Time Altitude Azimuth Distance (km) Brightness Sun altitude
Rises 02:01:04 0° 329° (NNW) 3,433 7.1 -11.8°
Reaches altitude 10° 02:03:35 10° 324° (NW) 2,493 6.3 -11.5°
Maximum altitude 02:09:04 49° 252° (WSW) 1,096 4.0 -10.8°
Drops below altitude 10° 02:14:31 10° 179° (S) 2,474 5.7 -10.2°
Sets 02:17:01 0° 174° (S) 3,404 6.5 -9.8°
